TimeEST,TemperatureF,Dew PointF,Humidity,Sea Level PressureIn,VisibilityMPH,Wind Direction,Wind SpeedMPH,Gust SpeedMPH,PrecipitationIn,Events,Conditions,WindDirDegrees,DateUTC
12:53 AM,44.1,36.0,73,29.90,10.0,WNW,5.8,-,N/A,,Overcast,300,2012-11-07 05:53:00
1:53 AM,43.0,37.0,80,29.89,8.0,Calm,Calm,-,N/A,,Overcast,0,2012-11-07 06:53:00
2:53 AM,43.0,37.0,80,29.88,7.0,Calm,Calm,-,N/A,,Overcast,0,2012-11-07 07:53:00
3:53 AM,41.0,39.0,93,29.88,5.0,Calm,Calm,-,0.00,Rain,Light Rain,0,2012-11-07 08:53:00
4:53 AM,41.0,39.0,93,29.89,4.0,Calm,Calm,-,0.00,,Overcast,0,2012-11-07 09:53:00
5:53 AM,41.0,39.9,96,29.89,2.5,Calm,Calm,-,0.01,,Overcast,0,2012-11-07 10:53:00
6:04 AM,41.0,39.2,93,29.89,3.0,Calm,Calm,-,0.00,,Overcast,0,2012-11-07 11:04:00
6:37 AM,41.0,39.2,93,29.89,3.0,Calm,Calm,-,0.00,Rain,Light Rain,0,2012-11-07 11:37:00
6:53 AM,41.0,39.0,93,29.90,3.0,Calm,Calm,-,0.00,Rain,Light Rain,0,2012-11-07 11:53:00
7:27 AM,41.0,39.2,93,29.91,2.0,Calm,Calm,-,0.01,Rain,Light Rain,0,2012-11-07 12:27:00
7:35 AM,41.0,39.2,93,29.91,1.8,Calm,Calm,-,0.01,Rain,Light Rain,0,2012-11-07 12:35:00
7:53 AM,41.0,39.9,96,29.92,1.8,Calm,Calm,-,0.02,Rain,Light Rain,0,2012-11-07 12:53:00
8:04 AM,41.0,39.2,93,29.92,2.0,Calm,Calm,-,0.01,Rain,Light Rain,0,2012-11-07 13:04:00
8:53 AM,42.1,39.9,92,29.94,2.5,Calm,Calm,-,0.02,,Overcast,0,2012-11-07 13:53:00
9:10 AM,42.8,39.2,87,29.93,2.5,Calm,Calm,-,N/A,,Overcast,0,2012-11-07 14:10:00
9:18 AM,42.8,39.2,87,29.94,3.0,North,3.5,-,N/A,,Overcast,350,2012-11-07 14:18:00
9:53 AM,42.1,39.9,92,29.95,3.0,NW,3.5,-,0.00,Rain,Light Rain,310,2012-11-07 14:53:00
10:53 AM,43.0,39.9,89,29.97,4.0,Calm,Calm,-,0.00,,Overcast,0,2012-11-07 15:53:00
11:04 AM,42.8,39.2,87,29.96,4.0,NW,4.6,-,N/A,,Overcast,320,2012-11-07 16:04:00
11:53 AM,45.0,39.0,80,29.97,7.0,NNW,4.6,-,N/A,,Overcast,330,2012-11-07 16:53:00
12:53 PM,50.0,39.0,66,29.95,10.0,Calm,Calm,-,N/A,,Overcast,0,2012-11-07 17:53:00
1:53 PM,48.9,36.0,61,29.95,10.0,North,3.5,-,N/A,,Clear,360,2012-11-07 18:53:00
2:53 PM,50.0,35.1,57,29.95,10.0,Calm,Calm,-,N/A,,Scattered Clouds,0,2012-11-07 19:53:00
3:53 PM,51.1,36.0,56,29.98,10.0,NW,5.8,-,N/A,,Overcast,310,2012-11-07 20:53:00
4:53 PM,50.0,34.0,54,30.00,10.0,NW,4.6,-,N/A,,Overcast,320,2012-11-07 21:53:00
5:53 PM,48.9,35.1,59,30.02,10.0,WNW,5.8,-,N/A,,Overcast,290,2012-11-07 22:53:00
6:53 PM,46.0,36.0,68,30.06,10.0,WNW,4.6,-,N/A,,Partly Cloudy,300,2012-11-07 23:53:00
7:53 PM,44.1,36.0,73,30.06,9.0,WNW,4.6,-,N/A,,Clear,290,2012-11-08 00:53:00
8:53 PM,42.1,36.0,79,30.08,8.0,NW,4.6,-,N/A,,Clear,310,2012-11-08 01:53:00
9:53 PM,41.0,35.1,79,30.11,7.0,WNW,6.9,-,N/A,,Clear,290,2012-11-08 02:53:00
10:53 PM,39.0,34.0,82,30.11,6.0,NW,4.6,-,N/A,,Haze,320,2012-11-08 03:53:00
11:53 PM,37.0,33.1,86,30.12,6.0,NNW,4.6,-,N/A,,Clear,330,2012-11-08 04:53:00